Time,TemperatureF,DewpointF,PressureIn,WindDirection,WindDirectionDegrees,WindSpeedMPH,WindSpeedGustMPH,Humidity,HourlyPrecipIn,Conditions,Clouds,dailyrainin,SoftwareType,DateUTC
2013-09-05 00:11:00,81.0,40.0,-100.00,South,178,10.0,23.0,23,0.00,,,-99.99,,2013-09-05 00:11:00,
2013-09-05 00:22:00,81.0,40.0,-100.00,South,178,10.0,23.0,23,0.00,,,-99.99,,2013-09-05 00:22:00,
2013-09-05 00:42:00,81.0,40.0,-100.00,South,191,8.0,18.0,23,0.00,,,-99.99,,2013-09-05 00:42:00,
2013-09-05 00:52:00,80.0,39.0,-100.00,SSW,198,6.0,15.0,23,0.00,,,-99.99,,2013-09-05 00:52:00,
2013-09-05 01:01:00,80.0,39.0,-100.00,SSW,198,6.0,15.0,23,0.00,,,-99.99,,2013-09-05 01:01:00,
2013-09-05 01:21:00,80.0,40.0,-100.00,WSW,250,5.0,13.0,24,0.00,,,-99.99,,2013-09-05 01:21:00,
2013-09-05 01:42:00,78.0,41.0,-100.00,West,267,5.0,14.0,27,0.00,,,-99.99,,2013-09-05 01:42:00,
2013-09-05 01:52:00,77.0,43.0,-100.00,WSW,251,4.0,11.0,30,0.00,,,-99.99,,2013-09-05 01:52:00,
2013-09-05 02:02:00,77.0,43.0,-100.00,WSW,251,4.0,11.0,30,0.00,,,-99.99,,2013-09-05 02:02:00,
2013-09-05 02:22:00,76.0,44.0,-100.00,West,271,4.0,13.0,32,0.00,,,-99.99,,2013-09-05 02:22:00,
2013-09-05 03:11:00,73.0,43.0,-100.00,West,275,7.0,16.0,34,0.00,,,-99.99,,2013-09-05 03:11:00,
2013-09-05 03:22:00,73.0,43.0,-100.00,West,275,7.0,16.0,34,0.00,,,-99.99,,2013-09-05 03:22:00,
2013-09-05 03:45:00,74.0,41.0,-100.00,West,264,8.0,21.0,31,0.00,,,-99.99,,2013-09-05 03:45:00,
2013-09-05 04:13:00,75.0,39.0,-100.00,West,263,10.0,29.0,27,0.00,,,-99.99,,2013-09-05 04:13:00,
2013-09-05 05:12:00,71.0,42.0,-100.00,NNW,342,4.0,13.0,35,0.00,,,-99.99,,2013-09-05 05:12:00,
2013-09-05 05:23:00,70.0,43.0,-100.00,NNE,20,7.0,15.0,37,0.00,,,-99.99,,2013-09-05 05:23:00,
2013-09-05 05:43:00,71.0,42.0,-100.00,North,4,6.0,13.0,35,0.00,,,-99.99,,2013-09-05 05:43:00,
2013-09-05 06:21:00,71.0,40.0,-100.00,NNW,333,3.0,8.0,32,0.00,,,-99.99,,2013-09-05 06:21:00,
2013-09-05 06:42:00,72.0,40.0,-100.00,West,267,3.0,9.0,31,0.00,,,-99.99,,2013-09-05 06:42:00,
2013-09-05 06:52:00,72.0,41.0,-100.00,WSW,253,4.0,11.0,32,0.00,,,-99.99,,2013-09-05 06:52:00,
2013-09-05 07:12:00,72.0,40.0,-100.00,WSW,248,6.0,19.0,31,0.00,,,-99.99,,2013-09-05 07:12:00,
2013-09-05 07:42:00,71.0,40.0,-100.00,West,260,5.0,11.0,33,0.00,,,-99.99,,2013-09-05 07:42:00,
2013-09-05 07:52:00,71.0,40.0,-100.00,WNW,287,6.0,13.0,33,0.00,,,-99.99,,2013-09-05 07:52:00,
2013-09-05 08:03:00,71.0,40.0,-100.00,WNW,287,6.0,13.0,33,0.00,,,-99.99,,2013-09-05 08:03:00,
2013-09-05 08:42:00,70.0,40.0,-100.00,WNW,282,7.0,13.0,34,0.00,,,-99.99,,2013-09-05 08:42:00,
2013-09-05 08:52:00,69.0,40.0,-100.00,West,260,3.0,8.0,35,0.00,,,-99.99,,2013-09-05 08:52:00,
2013-09-05 09:02:00,69.0,40.0,-100.00,West,260,3.0,8.0,35,0.00,,,-99.99,,2013-09-05 09:02:00,
2013-09-05 09:22:00,68.0,40.0,-100.00,WNW,294,7.0,13.0,36,0.00,,,-99.99,,2013-09-05 09:22:00,
2013-09-05 09:43:00,68.0,39.0,-100.00,WNW,289,5.0,13.0,35,0.00,,,-99.99,,2013-09-05 09:43:00,
2013-09-05 10:12:00,68.0,39.0,-100.00,WSW,256,3.0,10.0,34,0.00,,,-99.99,,2013-09-05 10:12:00,
2013-09-05 10:23:00,68.0,39.0,-100.00,WSW,257,1.0,6.0,35,0.00,,,-99.99,,2013-09-05 10:23:00,
2013-09-05 10:42:00,67.0,39.0,-100.00,WNW,292,5.0,8.0,36,0.00,,,-99.99,,2013-09-05 10:42:00,
2013-09-05 11:21:00,66.0,39.0,-100.00,WSW,246,4.0,8.0,37,0.00,,,-99.99,,2013-09-05 11:21:00,
2013-09-05 11:42:00,66.0,38.0,-100.00,SW,236,3.0,10.0,36,0.00,,,-99.99,,2013-09-05 11:42:00,
2013-09-05 12:21:00,66.0,37.0,-100.00,WNW,284,5.0,9.0,34,0.00,,,-99.99,,2013-09-05 12:21:00,
2013-09-05 12:32:00,66.0,37.0,-100.00,WNW,284,5.0,9.0,34,0.00,,,-99.99,,2013-09-05 12:32:00,
2013-09-05 12:42:00,66.0,37.0,-100.00,WNW,284,5.0,9.0,34,0.00,,,-99.99,,2013-09-05 12:42:00,
2013-09-05 12:52:00,65.0,39.0,-100.00,West,277,7.0,13.0,38,0.00,,,-99.99,,2013-09-05 12:52:00,
2013-09-05 13:12:00,66.0,38.0,-100.00,WNW,285,4.0,12.0,36,0.00,,,-99.99,,2013-09-05 13:12:00,
2013-09-05 13:21:00,66.0,38.0,-100.00,WNW,285,4.0,12.0,36,0.00,,,-99.99,,2013-09-05 13:21:00,
2013-09-05 13:42:00,66.0,39.0,-100.00,West,264,4.0,12.0,37,0.00,,,-99.99,,2013-09-05 13:42:00,
2013-09-05 13:52:00,65.0,39.0,-100.00,WNW,285,7.0,13.0,38,0.00,,,-99.99,,2013-09-05 13:52:00,
2013-09-05 14:12:00,66.0,39.0,-100.00,WNW,302,4.0,13.0,37,0.00,,,-99.99,,2013-09-05 14:12:00,
2013-09-05 14:42:00,65.0,39.0,-100.00,WNW,301,5.0,8.0,39,0.00,,,-99.99,,2013-09-05 14:42:00,
2013-09-05 15:22:00,67.0,41.0,-100.00,ENE,66,2.0,7.0,38,0.00,,,-99.99,,2013-09-05 15:22:00,
2013-09-05 15:23:00,70.0,41.0,-100.00,SE,143,2.0,7.0,35,0.00,,,-99.99,,2013-09-05 15:23:00,
2013-09-05 15:43:00,68.0,40.0,-100.00,SE,127,1.0,6.0,36,0.00,,,-99.99,,2013-09-05 15:43:00,
2013-09-05 16:13:00,70.0,41.0,-100.00,SE,143,2.0,7.0,35,0.00,,,-99.99,,2013-09-05 16:13:00,
2013-09-05 16:43:00,69.0,39.0,-100.00,NNE,13,3.0,10.0,34,0.00,,,-99.99,,2013-09-05 16:43:00,
2013-09-05 18:21:00,79.0,32.0,-100.00,SSE,155,10.0,28.0,18,0.00,,,-99.99,,2013-09-05 18:21:00,
2013-09-05 18:31:00,79.0,32.0,-100.00,SSE,155,10.0,28.0,18,0.00,,,-99.99,,2013-09-05 18:31:00,
2013-09-05 18:42:00,79.0,32.0,-100.00,SSE,155,10.0,28.0,18,0.00,,,-99.99,,2013-09-05 18:42:00,
2013-09-05 18:52:00,79.0,30.0,-100.00,SSE,162,9.0,22.0,17,0.00,,,-99.99,,2013-09-05 18:52:00,
2013-09-05 19:01:00,79.0,30.0,-100.00,SSE,162,9.0,22.0,17,0.00,,,-99.99,,2013-09-05 19:01:00,
2013-09-05 19:21:00,80.0,33.0,-100.00,SE,124,12.0,24.0,18,0.00,,,-99.99,,2013-09-05 19:21:00,
2013-09-05 19:42:00,80.0,31.0,-100.00,SE,145,9.0,21.0,17,0.00,,,-99.99,,2013-09-05 19:42:00,
2013-09-05 19:52:00,79.0,30.0,-100.00,SSE,165,11.0,28.0,17,0.00,,,-99.99,,2013-09-05 19:52:00,
2013-09-05 20:03:00,79.0,30.0,-100.00,SSE,165,11.0,28.0,17,0.00,,,-99.99,,2013-09-05 20:03:00,
2013-09-05 20:42:00,79.0,33.0,-100.00,SSE,157,10.0,29.0,19,0.00,,,-99.99,,2013-09-05 20:42:00,
2013-09-05 20:52:00,80.0,31.0,-100.00,West,270,8.0,21.0,17,0.00,,,-99.99,,2013-09-05 20:52:00,
2013-09-05 21:02:00,80.0,31.0,-100.00,West,270,8.0,21.0,17,0.00,,,-99.99,,2013-09-05 21:02:00,
2013-09-05 21:21:00,81.0,31.0,-100.00,SSE,150,6.0,19.0,16,0.00,,,-99.99,,2013-09-05 21:21:00,
2013-09-05 21:43:00,80.0,34.0,-100.00,SW,220,5.0,18.0,19,0.00,,,-99.99,,2013-09-05 21:43:00,
2013-09-05 22:13:00,79.0,29.0,-100.00,South,184,10.0,22.0,16,0.00,,,-99.99,,2013-09-05 22:13:00,
2013-09-05 22:24:00,79.0,32.0,-100.00,South,188,7.0,14.0,18,0.00,,,-99.99,,2013-09-05 22:24:00,
2013-09-05 22:43:00,78.0,31.0,-100.00,SW,232,7.0,19.0,18,0.00,,,-99.99,,2013-09-05 22:43:00,
2013-09-05 23:12:00,80.0,31.0,-100.00,South,189,7.0,19.0,17,0.00,,,-99.99,,2013-09-05 23:12:00,
2013-09-05 23:22:00,78.0,31.0,-100.00,SSW,206,9.0,22.0,18,0.00,,,-99.99,,2013-09-05 23:22:00,
2013-09-05 23:42:00,77.0,32.0,-100.00,SSW,195,8.0,24.0,19,0.00,,,-99.99,,2013-09-05 23:42:00,